When you browse on this site, cookies collect data to enhance your experience and personalize the content and advertising you see.
Visit our Privacy Policy to learn more. By continuing to use the site, you agree to this use of cookies and data.
  • En España
  • Lista de países
  • Para 7 días
  • Temperatura del agua
  • El tiempo en el mapa
  • Informadores
  • user-avatar
    Iniciar sesión

    Tiempo cada hora Almaty

    Hoy, 21 Enero, Martes

    Tiempo Temperatura Precipitaciones Viento Presión Humedad
    00:00 -4°C° 0 mm 1 mps 690 mmHg 76%
    01:00 -4°C° 0 mm 1 mps 690 mmHg 74%
    02:00 -4°C° 0 mm 1 mps 689 mmHg 73%
    03:00 -6°C° 0 mm 1 mps 690 mmHg 72%
    04:00 -6°C° 0 mm 1 mps 690 mmHg 71%
    05:00 -6°C° 0 mm 1 mps 689 mmHg 69%
    06:00 -6°C° 0 mm 1 mps 689 mmHg 69%
    07:00 -6°C° 0 mm 1 mps 689 mmHg 69%
    08:00 -6°C° 0 mm 1 mps 689 mmHg 68%
    09:00 -3°C° 0 mm 1 mps 689 mmHg 72%
    10:00 -2°C° 0 mm 1 mps 689 mmHg 76%
    11:00 -1°C° 0 mm 1 mps 689 mmHg 80%
    12:00 0°C° 0 mm 1 mps 689 mmHg 83%
    13:00 0°C° 0 mm 1 mps 688 mmHg 86%
    14:00 0°C° 0 mm 1 mps 688 mmHg 89%
    15:00 -1°C° 0 mm 1 mps 688 mmHg 90%
    16:00 -3°C° 0 mm 0 mps 688 mmHg 90%
    17:00 -4°C° 0 mm 0 mps 689 mmHg 90%
    18:00 -4°C° 0 mm 0 mps 689 mmHg 88%
    19:00 -4°C° 0 mm 0 mps 689 mmHg 85%
    20:00 -4°C° 0 mm 0 mps 690 mmHg 83%
    21:00 -4°C° 0 mm 0 mps 689 mmHg 83%
    22:00 -4°C° 0 mm 0 mps 689 mmHg 83%
    23:00 -4°C° 0 mm 0 mps 689 mmHg 83%

    Mañana, 22 Enero, Miércoles

    Tiempo Temperatura Precipitaciones Viento Presión Humedad
    00:00 -4°C° 0 mm 0 mps 689 mmHg 83%
    01:00 -4°C° 0 mm 0 mps 689 mmHg 83%
    02:00 -4°C° 0 mm 0 mps 689 mmHg 84%
    03:00 -4°C° 0 mm 0 mps 689 mmHg 85%
    04:00 -4°C° 0 mm 0 mps 690 mmHg 86%
    05:00 -4°C° 0 mm 0 mps 690 mmHg 86%
    06:00 -4°C° 0 mm 0 mps 690 mmHg 88%
    07:00 -4°C° 0 mm 0 mps 690 mmHg 90%
    08:00 -4°C° 0 mm 0 mps 690 mmHg 91%
    09:00 -2°C° 0 mm 1 mps 691 mmHg 92%
    10:00 -1°C° 0 mm 1 mps 691 mmHg 93%
    11:00 0°C° 0 mm 1 mps 691 mmHg 94%
    12:00 0°C° 0.1 mm 1 mps 690 mmHg 95%
    13:00 0°C° 0.1 mm 1 mps 690 mmHg 95%
    14:00 0°C° 0.1 mm 1 mps 690 mmHg 96%
    15:00 -1°C° 0.2 mm 1 mps 691 mmHg 96%
    16:00 -1°C° 0.2 mm 1 mps 691 mmHg 97%
    17:00 -3°C° 0.2 mm 0 mps 691 mmHg 97%
    18:00 -3°C° 0.2 mm 0 mps 692 mmHg 95%
    19:00 -2°C° 0.2 mm 1 mps 692 mmHg 94%
    20:00 -2°C° 0.2 mm 1 mps 693 mmHg 92%
    21:00 -2°C° 0.1 mm 1 mps 693 mmHg 90%
    22:00 -2°C° 0.1 mm 1 mps 693 mmHg 89%
    23:00 -3°C° 0.1 mm 1 mps 693 mmHg 88%

    Pasado mañana, 23 Enero, Jueves

    Tiempo Temperatura Precipitaciones Viento Presión Humedad
    00:00 -3°C° 0 mm 1 mps 693 mmHg 88%
    01:00 -3°C° 0 mm 1 mps 693 mmHg 88%
    02:00 -3°C° 0 mm 1 mps 692 mmHg 88%
    03:00 -4°C° 0 mm 1 mps 693 mmHg 86%
    04:00 -4°C° 0 mm 1 mps 693 mmHg 84%
    05:00 -4°C° 0 mm 1 mps 693 mmHg 82%
    06:00 -4°C° 0 mm 1 mps 693 mmHg 79%
    07:00 -7°C° 0 mm 2 mps 693 mmHg 77%
    08:00 -7°C° 0 mm 2 mps 693 mmHg 74%
    09:00 -5°C° 0 mm 2 mps 693 mmHg 76%
    10:00 -4°C° 0 mm 2 mps 693 mmHg 78%
    11:00 -2°C° 0 mm 2 mps 693 mmHg 80%
    12:00 -2°C° 0 mm 2 mps 693 mmHg 80%
    13:00 -1°C° 0 mm 2 mps 692 mmHg 81%
    14:00 -1°C° 0 mm 2 mps 692 mmHg 82%
    15:00 -2°C° 0 mm 2 mps 692 mmHg 78%
    16:00 -2°C° 0 mm 2 mps 692 mmHg 74%
    17:00 -4°C° 0 mm 3 mps 692 mmHg 70%
    18:00 -5°C° 0 mm 3 mps 692 mmHg 67%
    19:00 -5°C° 0 mm 3 mps 692 mmHg 64%
    20:00 -5°C° 0 mm 3 mps 692 mmHg 60%
    21:00 -5°C° 0 mm 3 mps 692 mmHg 60%
    22:00 -5°C° 0 mm 3 mps 691 mmHg 59%
    23:00 -5°C° 0 mm 3 mps 691 mmHg 59%

    24 Enero, Viernes

    Tiempo Temperatura Precipitaciones Viento Presión Humedad
    00:00 -5°C° 0 mm 4 mps 691 mmHg 58%
    01:00 -5°C° 0 mm 4 mps 690 mmHg 57%
    02:00 -5°C° 0 mm 4 mps 690 mmHg 57%
    03:00 -5°C° 0 mm 4 mps 689 mmHg 55%
    04:00 -7°C° 0 mm 4 mps 689 mmHg 54%
    05:00 -7°C° 0 mm 4 mps 688 mmHg 52%
    06:00 -5°C° 0 mm 4 mps 688 mmHg 52%
    07:00 -5°C° 0 mm 4 mps 687 mmHg 52%
    08:00 -5°C° 0 mm 4 mps 687 mmHg 52%
    09:00 -4°C° 0 mm 4 mps 686 mmHg 58%
    10:00 -1°C° 0 mm 3 mps 685 mmHg 64%
    11:00 +1°C° 0 mm 3 mps 684 mmHg 70%
    12:00 +1°C° 0 mm 3 mps 683 mmHg 71%
    13:00 +2°C° 0 mm 3 mps 682 mmHg 72%
    14:00 +3°C° 0 mm 3 mps 680 mmHg 73%
    15:00 +2°C° 0 mm 3 mps 680 mmHg 68%
    16:00 0°C° 0 mm 4 mps 680 mmHg 62%
    17:00 -1°C° 0 mm 4 mps 680 mmHg 57%
    18:00 0°C° 0 mm 3 mps 681 mmHg 59%
    19:00 0°C° 0 mm 3 mps 682 mmHg 62%
    20:00 +1°C° 0 mm 2 mps 683 mmHg 64%
    21:00 +1°C° 0 mm 2 mps 684 mmHg 61%
    22:00 +1°C° 0 mm 2 mps 684 mmHg 58%
    23:00 +2°C° 0 mm 1 mps 685 mmHg 55%

    25 Enero, Sábado

    Tiempo Temperatura Precipitaciones Viento Presión Humedad
    00:00 +1°C° 0 mm 2 mps 686 mmHg 58%
    01:00 +1°C° 0 mm 2 mps 686 mmHg 61%
    02:00 +1°C° 0 mm 2 mps 687 mmHg 64%
    03:00 +1°C° 0.1 mm 2 mps 688 mmHg 72%
    04:00 +1°C° 0.1 mm 2 mps 688 mmHg 80%
    05:00 +1°C° 0.1 mm 2 mps 688 mmHg 87%
    06:00 +2°C° 0.1 mm 1 mps 689 mmHg 90%
    07:00 +2°C° 0.1 mm 1 mps 689 mmHg 92%
    08:00 +2°C° 0.1 mm 1 mps 690 mmHg 94%
    09:00 +3°C° 0.2 mm 1 mps 689 mmHg 95%
    10:00 +3°C° 0.2 mm 1 mps 689 mmHg 95%
    11:00 +3°C° 0.2 mm 1 mps 689 mmHg 96%
    12:00 +3°C° 0.1 mm 1 mps 689 mmHg 96%
    13:00 +3°C° 0.1 mm 1 mps 688 mmHg 97%
    14:00 +3°C° 0.1 mm 1 mps 688 mmHg 97%
    15:00 +3°C° 0 mm 1 mps 688 mmHg 96%
    16:00 +2°C° 0 mm 1 mps 688 mmHg 95%
    17:00 +1°C° 0 mm 1 mps 688 mmHg 93%
    18:00 +1°C° 0 mm 1 mps 688 mmHg 89%
    19:00 -1°C° 0 mm 2 mps 688 mmHg 85%
    20:00 -2°C° 0 mm 2 mps 687 mmHg 80%
    21:00 -2°C° 0 mm 2 mps 687 mmHg 78%
    22:00 -2°C° 0 mm 2 mps 686 mmHg 76%
    23:00 -2°C° 0 mm 2 mps 686 mmHg 75%

    26 Enero, Domingo

    Tiempo Temperatura Precipitaciones Viento Presión Humedad
    00:00 -2°C° 0 mm 2 mps 685 mmHg 74%
    01:00 -2°C° 0 mm 2 mps 685 mmHg 74%
    02:00 -2°C° 0 mm 2 mps 685 mmHg 74%
    03:00 -2°C° 0 mm 2 mps 685 mmHg 77%
    04:00 -2°C° 0 mm 2 mps 686 mmHg 79%
    05:00 -2°C° 0 mm 3 mps 686 mmHg 82%
    06:00 -2°C° 0.4 mm 3 mps 687 mmHg 87%
    07:00 -2°C° 0.4 mm 3 mps 688 mmHg 91%
    08:00 -2°C° 0.4 mm 3 mps 689 mmHg 96%
    09:00 -2°C° 0.8 mm 3 mps 689 mmHg 94%
    10:00 -3°C° 0.8 mm 2 mps 690 mmHg 93%
    11:00 -3°C° 0.8 mm 2 mps 690 mmHg 91%
    12:00 -3°C° 0.3 mm 2 mps 691 mmHg 92%
    13:00 -4°C° 0.3 mm 2 mps 691 mmHg 93%
    14:00 -4°C° 0.3 mm 2 mps 691 mmHg 94%
    15:00 -5°C° 0.4 mm 2 mps 692 mmHg 94%
    16:00 -4°C° 0.4 mm 1 mps 692 mmHg 94%
    17:00 -6°C° 0.4 mm 1 mps 693 mmHg 94%
    18:00 -6°C° 0.1 mm 1 mps 693 mmHg 92%
    19:00 -6°C° 0.1 mm 1 mps 694 mmHg 90%
    20:00 -6°C° 0.1 mm 0 mps 694 mmHg 88%
    21:00 -7°C° 0 mm 1 mps 694 mmHg 88%
    22:00 -8°C° 0 mm 1 mps 694 mmHg 88%
    23:00 -8°C° 0 mm 1 mps 694 mmHg 87%
    Mostrar más